Time,TemperatureF,DewpointF,PressureIn,WindDirection,WindDirectionDegrees,WindSpeedMPH,WindSpeedGustMPH,Humidity,HourlyPrecipIn,Conditions,Clouds,dailyrainin,SoftwareType,DateUTC
2013-01-29 00:00:00,37.9,20.4,29.75,SSW,208,1.0,1.0,49,0.00,,,0.00,Wunderground v.1.15,2013-01-29 07:00:00,
2013-01-29 00:05:00,37.8,20.3,29.76,SSW,208,0.0,1.0,49,0.00,,,0.00,Wunderground v.1.15,2013-01-29 07:05:00,
2013-01-29 00:15:00,37.7,20.2,29.76,SSW,211,0.0,0.0,49,0.00,,,0.00,Wunderground v.1.15,2013-01-29 07:15:00,
2013-01-29 00:20:00,37.7,20.2,29.76,SSW,211,0.0,0.0,49,0.00,,,0.00,Wunderground v.1.15,2013-01-29 07:20:00,
2013-01-29 00:25:00,37.6,20.6,29.76,SSW,211,0.0,0.0,50,0.00,,,0.00,Wunderground v.1.15,2013-01-29 07:25:00,
2013-01-29 00:30:00,37.4,20.9,29.76,SSW,211,0.0,0.0,51,0.00,,,0.00,Wunderground v.1.15,2013-01-29 07:30:00,
2013-01-29 00:35:00,37.2,20.2,29.77,SSW,207,0.0,0.0,50,0.00,,,0.00,Wunderground v.1.15,2013-01-29 07:35:00,
2013-01-29 00:40:00,37.1,20.6,29.76,SSW,207,1.0,2.0,51,0.00,,,0.00,Wunderground v.1.15,2013-01-29 07:40:00,
2013-01-29 00:45:00,37.1,20.6,29.76,SSW,206,1.0,3.0,51,0.00,,,0.00,Wunderground v.1.15,2013-01-29 07:45:00,
2013-01-29 00:50:00,36.9,20.9,29.76,SSW,207,1.0,4.0,52,0.00,,,0.00,Wunderground v.1.15,2013-01-29 07:50:00,
2013-01-29 01:00:00,36.8,20.8,29.76,SSW,202,1.0,1.0,52,0.00,,,0.00,Wunderground v.1.15,2013-01-29 08:00:00,
2013-01-29 01:05:00,36.7,20.7,29.75,SSW,202,1.0,1.0,52,0.00,,,0.00,Wunderground v.1.15,2013-01-29 08:05:00,
2013-01-29 01:15:00,36.4,21.3,29.75,SSW,198,0.0,6.0,54,0.00,,,0.00,Wunderground v.1.15,2013-01-29 08:15:00,
2013-01-29 01:20:00,36.4,20.9,29.75,SSW,202,1.0,4.0,53,0.00,,,0.00,Wunderground v.1.15,2013-01-29 08:20:00,
2013-01-29 01:25:00,36.4,21.3,29.74,SSW,200,2.0,4.0,54,0.00,,,0.00,Wunderground v.1.15,2013-01-29 08:25:00,
2013-01-29 01:30:00,36.3,21.2,29.74,South,189,1.0,1.0,54,0.00,,,0.00,Wunderground v.1.15,2013-01-29 08:30:00,
2013-01-29 01:35:00,36.3,21.2,29.74,South,190,1.0,3.0,54,0.00,,,0.00,Wunderground v.1.15,2013-01-29 08:35:00,
2013-01-29 01:45:00,36.2,20.7,29.73,South,190,1.0,1.0,53,0.00,,,0.00,Wunderground v.1.15,2013-01-29 08:45:00,
2013-01-29 01:50:00,36.1,20.6,29.73,South,190,0.0,2.0,53,0.00,,,0.00,Wunderground v.1.15,2013-01-29 08:50:00,
2013-01-29 02:00:00,35.9,20.4,29.72,SSW,204,1.0,3.0,53,0.00,,,0.00,Wunderground v.1.15,2013-01-29 09:00:00,
2013-01-29 02:05:00,35.9,20.4,29.72,SSW,209,1.0,3.0,53,0.00,,,0.00,Wunderground v.1.15,2013-01-29 09:05:00,
2013-01-29 02:15:00,35.7,20.7,29.73,SSW,205,1.0,2.0,54,0.00,,,0.00,Wunderground v.1.15,2013-01-29 09:15:00,
2013-01-29 02:20:00,35.6,20.6,29.73,SSW,205,0.0,0.0,54,0.00,,,0.00,Wunderground v.1.15,2013-01-29 09:20:00,
2013-01-29 02:30:00,35.3,20.3,29.72,West,263,0.0,1.0,54,0.00,,,0.00,Wunderground v.1.15,2013-01-29 09:30:00,
2013-01-29 02:35:00,35.4,19.9,29.72,West,263,0.0,1.0,53,0.00,,,0.00,Wunderground v.1.15,2013-01-29 09:35:00,
2013-01-29 02:40:00,35.3,20.3,29.73,West,263,0.0,0.0,54,0.00,,,0.00,Wunderground v.1.15,2013-01-29 09:40:00,
2013-01-29 02:45:00,35.2,20.2,29.73,West,263,0.0,0.0,54,0.00,,,0.00,Wunderground v.1.15,2013-01-29 09:45:00,
2013-01-29 02:55:00,35.2,20.6,29.72,SW,236,0.0,0.0,55,0.00,,,0.00,Wunderground v.1.15,2013-01-29 09:55:00,
2013-01-29 03:00:00,35.1,20.5,29.72,SW,225,0.0,0.0,55,0.00,,,0.00,Wunderground v.1.15,2013-01-29 10:00:00,
2013-01-29 03:05:00,35.1,20.5,29.72,SW,226,0.0,0.0,55,0.00,,,0.00,Wunderground v.1.15,2013-01-29 10:05:00,
2013-01-29 03:14:00,35.0,20.4,29.72,West,271,1.0,1.0,55,0.00,,,0.00,Wunderground v.1.15,2013-01-29 10:14:00,
2013-01-29 03:20:00,35.0,20.0,29.72,WNW,289,2.0,2.0,54,0.00,,,0.00,Wunderground v.1.15,2013-01-29 10:20:00,
2013-01-29 03:30:00,35.0,20.4,29.71,WSW,246,1.0,1.0,55,0.00,,,0.00,Wunderground v.1.15,2013-01-29 10:30:00,
2013-01-29 03:35:00,34.8,20.3,29.71,WSW,238,1.0,2.0,55,0.00,,,0.00,Wunderground v.1.15,2013-01-29 10:35:00,
2013-01-29 03:40:00,34.7,20.6,29.70,WSW,247,0.0,0.0,56,0.00,,,0.00,Wunderground v.1.15,2013-01-29 10:40:00,
2013-01-29 03:45:00,34.6,20.1,29.70,WSW,248,0.0,0.0,55,0.00,,,0.00,Wunderground v.1.15,2013-01-29 10:45:00,
2013-01-29 03:50:00,34.5,20.0,29.70,WSW,246,0.0,1.0,55,0.00,,,0.00,Wunderground v.1.15,2013-01-29 10:50:00,
2013-01-29 04:00:00,34.1,20.0,29.70,SW,231,1.0,1.0,56,0.00,,,0.00,Wunderground v.1.15,2013-01-29 11:00:00,
2013-01-29 04:05:00,33.9,20.3,29.70,WNW,289,1.0,4.0,57,0.00,,,0.00,Wunderground v.1.15,2013-01-29 11:05:00,
2013-01-29 04:14:00,33.7,20.5,29.69,WSW,237,0.0,0.0,58,0.00,,,0.00,Wunderground v.1.15,2013-01-29 11:14:00,
2013-01-29 04:20:00,33.6,20.4,29.69,WSW,248,1.0,1.0,58,0.00,,,0.00,Wunderground v.1.15,2013-01-29 11:20:00,
2013-01-29 04:25:00,33.6,20.4,29.69,WSW,238,1.0,1.0,58,0.00,,,0.00,Wunderground v.1.15,2013-01-29 11:25:00,
2013-01-29 04:35:00,33.5,20.7,29.68,WSW,245,0.0,0.0,59,0.00,,,0.00,Wunderground v.1.15,2013-01-29 11:35:00,
2013-01-29 04:40:00,33.5,20.7,29.68,WSW,237,0.0,0.0,59,0.00,,,0.00,Wunderground v.1.15,2013-01-29 11:40:00,
2013-01-29 04:45:00,33.6,20.4,29.68,West,272,1.0,1.0,58,0.00,,,0.00,Wunderground v.1.15,2013-01-29 11:45:00,
2013-01-29 04:55:00,33.5,20.7,29.68,West,270,0.0,0.0,59,0.00,,,0.00,Wunderground v.1.15,2013-01-29 11:55:00,
2013-01-29 05:00:00,33.5,20.7,29.67,WSW,257,0.0,0.0,59,0.00,,,0.00,Wunderground v.1.15,2013-01-29 12:00:00,
2013-01-29 05:05:00,33.2,20.4,29.67,WSW,256,0.0,0.0,59,0.00,,,0.00,Wunderground v.1.15,2013-01-29 12:05:00,
2013-01-29 05:15:00,32.8,20.8,29.67,WSW,256,0.0,0.0,61,0.00,,,0.00,Wunderground v.1.15,2013-01-29 12:15:00,
2013-01-29 05:20:00,32.5,20.5,29.67,WSW,256,0.0,0.0,61,0.00,,,0.00,Wunderground v.1.15,2013-01-29 12:20:00,
2013-01-29 05:25:00,32.3,20.3,29.67,WSW,256,0.0,0.0,61,0.00,,,0.00,Wunderground v.1.15,2013-01-29 12:25:00,
2013-01-29 05:30:00,32.2,20.6,29.67,WSW,256,0.0,0.0,62,0.00,,,0.00,Wunderground v.1.15,2013-01-29 12:30:00,
2013-01-29 05:40:00,32.0,20.8,29.67,WSW,256,0.0,0.0,63,0.00,,,0.00,Wunderground v.1.15,2013-01-29 12:40:00,
2013-01-29 05:50:00,32.1,21.3,29.68,WSW,256,0.0,0.0,64,0.00,,,0.00,Wunderground v.1.15,2013-01-29 12:50:00,
2013-01-29 05:55:00,32.0,21.2,29.68,WSW,256,0.0,0.0,64,0.00,,,0.00,Wunderground v.1.15,2013-01-29 12:55:00,
2013-01-29 06:00:00,31.9,21.1,29.68,WSW,256,0.0,0.0,64,0.00,,,0.00,Wunderground v.1.15,2013-01-29 13:00:00,
2013-01-29 06:05:00,32.0,21.2,29.67,WSW,256,0.0,0.0,64,0.00,,,0.00,Wunderground v.1.15,2013-01-29 13:05:00,
2013-01-29 06:15:00,32.3,21.1,29.67,WSW,254,0.0,0.0,63,0.00,,,0.00,Wunderground v.1.15,2013-01-29 13:15:00,
2013-01-29 06:20:00,32.3,21.1,29.67,SSW,200,1.0,1.0,63,0.00,,,0.00,Wunderground v.1.15,2013-01-29 13:20:00,
2013-01-29 06:25:00,32.3,21.1,29.67,SSW,200,1.0,1.0,63,0.00,,,0.00,Wunderground v.1.15,2013-01-29 13:25:00,
2013-01-29 06:30:00,32.2,21.0,29.67,SSW,200,0.0,0.0,63,0.00,,,0.00,Wunderground v.1.15,2013-01-29 13:30:00,
2013-01-29 06:40:00,32.3,21.1,29.67,WSW,248,1.0,1.0,63,0.00,,,0.00,Wunderground v.1.15,2013-01-29 13:40:00,
2013-01-29 06:45:00,32.5,21.3,29.67,WSW,248,2.0,2.0,63,0.00,,,0.00,Wunderground v.1.15,2013-01-29 13:45:00,
2013-01-29 06:55:00,32.4,21.2,29.67,West,281,1.0,1.0,63,0.00,,,0.00,Wunderground v.1.15,2013-01-29 13:55:00,
2013-01-29 07:00:00,32.2,21.4,29.67,West,281,0.0,0.0,64,0.00,,,0.00,Wunderground v.1.15,2013-01-29 14:00:00,
2013-01-29 07:05:00,32.1,21.3,29.67,WNW,292,0.0,0.0,64,0.00,,,0.00,Wunderground v.1.15,2013-01-29 14:05:00,
2013-01-29 07:15:00,32.2,21.7,29.68,WNW,286,1.0,1.0,65,0.00,,,0.00,Wunderground v.1.15,2013-01-29 14:15:00,
2013-01-29 07:25:00,32.4,21.6,29.67,WNW,295,1.0,1.0,64,0.00,,,0.00,Wunderground v.1.15,2013-01-29 14:25:00,
2013-01-29 07:30:00,32.4,21.6,29.67,WNW,295,1.0,1.0,64,0.00,,,0.00,Wunderground v.1.15,2013-01-29 14:30:00,
2013-01-29 07:40:00,32.3,21.5,29.68,WNW,295,0.0,0.0,64,0.00,,,0.00,Wunderground v.1.15,2013-01-29 14:40:00,
2013-01-29 07:45:00,32.0,21.2,29.68,WNW,295,0.0,0.0,64,0.00,,,0.00,Wunderground v.1.15,2013-01-29 14:45:00,
2013-01-29 07:50:00,31.7,21.3,29.68,WNW,295,0.0,0.0,65,0.00,,,0.00,Wunderground v.1.15,2013-01-29 14:50:00,
2013-01-29 08:00:00,31.6,21.5,29.69,WNW,295,0.0,0.0,66,0.00,,,0.00,Wunderground v.1.15,2013-01-29 15:00:00,
2013-01-29 08:05:00,32.0,21.9,29.69,WNW,295,0.0,0.0,66,0.00,,,0.00,Wunderground v.1.15,2013-01-29 15:05:00,
2013-01-29 08:15:00,32.5,21.7,29.70,WNW,295,0.0,0.0,64,0.00,,,0.00,Wunderground v.1.15,2013-01-29 15:15:00,
2013-01-29 08:20:00,32.8,22.0,29.70,WNW,295,0.0,0.0,64,0.00,,,0.00,Wunderground v.1.15,2013-01-29 15:20:00,
2013-01-29 08:30:00,33.2,22.0,29.70,WNW,295,0.0,0.0,63,0.00,,,0.00,Wunderground v.1.15,2013-01-29 15:30:00,
2013-01-29 08:40:00,33.3,21.3,29.70,WNW,295,0.0,0.0,61,0.00,,,0.00,Wunderground v.1.15,2013-01-29 15:40:00,
2013-01-29 08:45:00,33.4,20.6,29.70,WNW,294,1.0,4.0,59,0.00,,,0.00,Wunderground v.1.15,2013-01-29 15:45:00,
2013-01-29 08:50:00,33.4,19.8,29.70,NW,315,2.0,10.0,57,0.00,,,0.00,Wunderground v.1.15,2013-01-29 15:50:00,
2013-01-29 08:55:00,33.4,18.9,29.70,NNW,328,5.0,10.0,55,0.00,,,0.00,Wunderground v.1.15,2013-01-29 15:55:00,
2013-01-29 09:00:00,33.2,18.8,29.70,WNW,302,7.0,7.0,55,0.00,,,0.00,Wunderground v.1.15,2013-01-29 16:00:00,
2013-01-29 09:05:00,33.1,18.7,29.71,NW,304,6.0,7.0,55,0.00,,,0.00,Wunderground v.1.15,2013-01-29 16:05:00,
2013-01-29 09:15:00,33.2,17.5,29.71,NNW,345,6.0,9.0,52,0.00,,,0.00,Wunderground v.1.15,2013-01-29 16:15:00,
2013-01-29 09:20:00,33.3,17.1,29.71,NW,318,7.0,7.0,51,0.00,,,0.00,Wunderground v.1.15,2013-01-29 16:20:00,
2013-01-29 09:30:00,33.5,17.7,29.71,WNW,296,7.0,14.0,52,0.00,,,0.00,Wunderground v.1.15,2013-01-29 16:30:00,
2013-01-29 09:35:00,33.5,17.7,29.71,NW,324,8.0,14.0,52,0.00,,,0.00,Wunderground v.1.15,2013-01-29 16:35:00,
2013-01-29 09:45:00,33.8,16.6,29.71,NW,318,7.0,9.0,49,0.00,,,0.00,Wunderground v.1.15,2013-01-29 16:45:00,
2013-01-29 09:50:00,33.8,15.2,29.72,NW,320,8.0,8.0,46,0.00,,,0.00,Wunderground v.1.15,2013-01-29 16:50:00,
2013-01-29 09:55:00,33.9,14.8,29.71,NNW,343,7.0,8.0,45,0.00,,,0.00,Wunderground v.1.15,2013-01-29 16:55:00,
2013-01-29 10:00:00,33.8,15.2,29.71,NW,309,6.0,13.0,46,0.00,,,0.00,Wunderground v.1.15,2013-01-29 17:00:00,
2013-01-29 10:05:00,33.9,15.8,29.71,NNW,339,7.0,13.0,47,0.00,,,0.00,Wunderground v.1.15,2013-01-29 17:05:00,
2013-01-29 10:15:00,34.3,17.6,29.72,NNW,344,6.0,7.0,50,0.00,,,0.00,Wunderground v.1.15,2013-01-29 17:15:00,
2013-01-29 10:20:00,34.3,17.1,29.72,WNW,290,7.0,15.0,49,0.00,,,0.00,Wunderground v.1.15,2013-01-29 17:20:00,
2013-01-29 10:25:00,33.8,16.6,29.72,NW,313,8.0,15.0,49,0.00,,,0.00,Wunderground v.1.15,2013-01-29 17:25:00,
2013-01-29 10:30:00,33.5,16.8,29.72,NNW,342,7.0,7.0,50,0.00,,,0.00,Wunderground v.1.15,2013-01-29 17:30:00,
2013-01-29 10:35:00,33.5,16.8,29.72,WNW,297,6.0,7.0,50,0.00,,,0.00,Wunderground v.1.15,2013-01-29 17:35:00,
2013-01-29 10:40:00,33.5,17.3,29.73,NW,317,6.0,7.0,51,0.00,,,0.00,Wunderground v.1.15,2013-01-29 17:40:00,
2013-01-29 10:50:00,33.3,19.3,29.73,North,350,9.0,9.0,56,0.00,,,0.00,Wunderground v.1.15,2013-01-29 17:50:00,
2013-01-29 10:55:00,32.4,22.7,29.74,NNW,348,7.0,9.0,67,0.00,,,0.00,Wunderground v.1.15,2013-01-29 17:55:00,
2013-01-29 11:00:00,31.9,22.9,29.74,NNW,331,5.0,7.0,69,0.00,,,0.00,Wunderground v.1.15,2013-01-29 18:00:00,
2013-01-29 11:05:00,32.4,21.6,29.74,NW,323,5.0,11.0,64,0.00,,,0.00,Wunderground v.1.15,2013-01-29 18:05:00,
2013-01-29 11:15:00,33.2,18.8,29.73,WNW,298,9.0,16.0,55,0.00,,,0.00,Wunderground v.1.15,2013-01-29 18:15:00,
2013-01-29 11:20:00,33.4,18.9,29.73,NNW,327,9.0,9.0,55,0.00,,,0.00,Wunderground v.1.15,2013-01-29 18:20:00,
2013-01-29 11:25:00,34.9,19.0,29.73,WNW,299,8.0,9.0,52,0.00,,,0.00,Wunderground v.1.15,2013-01-29 18:25:00,
2013-01-29 11:30:00,35.5,17.7,29.73,NW,314,8.0,11.0,48,0.00,,,0.00,Wunderground v.1.15,2013-01-29 18:30:00,
2013-01-29 11:35:00,34.8,16.6,29.73,NNW,344,8.0,11.0,47,0.00,,,0.00,Wunderground v.1.15,2013-01-29 18:35:00,
2013-01-29 11:40:00,35.1,17.8,29.73,NW,321,7.0,7.0,49,0.00,,,0.00,Wunderground v.1.15,2013-01-29 18:40:00,
2013-01-29 11:45:00,35.8,17.0,29.73,NNW,340,7.0,7.0,46,0.00,,,0.00,Wunderground v.1.15,2013-01-29 18:45:00,
2013-01-29 11:50:00,35.3,16.6,29.73,North,350,7.0,7.0,46,0.00,,,0.00,Wunderground v.1.15,2013-01-29 18:50:00,
2013-01-29 12:00:00,34.8,14.5,29.72,NNW,348,8.0,8.0,43,0.00,,,0.00,Wunderground v.1.15,2013-01-29 19:00:00,
2013-01-29 12:05:00,35.0,15.3,29.72,NW,312,9.0,11.0,44,0.00,,,0.00,Wunderground v.1.15,2013-01-29 19:05:00,
2013-01-29 12:15:00,36.6,16.2,29.72,NW,311,8.0,8.0,43,0.00,,,0.00,Wunderground v.1.15,2013-01-29 19:15:00,
2013-01-29 12:20:00,36.2,14.2,29.72,NNW,346,8.0,8.0,40,0.00,,,0.00,Wunderground v.1.15,2013-01-29 19:20:00,
2013-01-29 12:25:00,35.5,13.5,29.72,NNW,333,8.0,8.0,40,0.00,,,0.00,Wunderground v.1.15,2013-01-29 19:25:00,
2013-01-29 12:35:00,36.4,14.3,29.72,WNW,292,7.0,11.0,40,0.00,,,0.00,Wunderground v.1.15,2013-01-29 19:35:00,
2013-01-29 12:40:00,36.2,13.6,29.72,NNE,19,8.0,8.0,39,0.00,,,0.00,Wunderground v.1.15,2013-01-29 19:40:00,
2013-01-29 12:45:00,36.5,12.0,29.72,NNW,342,9.0,9.0,36,0.00,,,0.00,Wunderground v.1.15,2013-01-29 19:45:00,
2013-01-29 12:50:00,36.8,12.3,29.72,NNW,336,8.0,14.0,36,0.00,,,0.00,Wunderground v.1.15,2013-01-29 19:50:00,
2013-01-29 12:55:00,36.7,11.6,29.72,North,349,8.0,14.0,35,0.00,,,0.00,Wunderground v.1.15,2013-01-29 19:55:00,
2013-01-29 13:05:00,35.9,10.9,29.72,NNW,344,9.0,11.0,35,0.00,,,0.00,Wunderground v.1.15,2013-01-29 20:05:00,
2013-01-29 13:15:00,35.0,10.1,29.72,NW,311,9.0,15.0,35,0.00,,,0.00,Wunderground v.1.15,2013-01-29 20:15:00,
2013-01-29 13:20:00,34.6,10.3,29.72,North,5,9.0,9.0,36,0.00,,,0.00,Wunderground v.1.15,2013-01-29 20:20:00,
2013-01-29 13:25:00,34.8,11.1,29.72,NNW,331,9.0,13.0,37,0.00,,,0.00,Wunderground v.1.15,2013-01-29 20:25:00,
2013-01-29 13:30:00,34.7,9.1,29.72,North,355,10.0,18.0,34,0.00,,,0.00,Wunderground v.1.15,2013-01-29 20:30:00,
2013-01-29 13:35:00,34.8,8.6,29.72,NNW,337,12.0,18.0,33,0.00,,,0.00,Wunderground v.1.15,2013-01-29 20:35:00,
2013-01-29 13:40:00,34.5,8.3,29.73,North,355,11.0,13.0,33,0.00,,,0.00,Wunderground v.1.15,2013-01-29 20:40:00,
2013-01-29 13:45:00,34.1,8.0,29.73,North,355,10.0,13.0,33,0.00,,,0.00,Wunderground v.1.15,2013-01-29 20:45:00,
2013-01-29 13:55:00,33.8,8.4,29.73,NNW,329,13.0,13.0,34,0.00,,,0.00,Wunderground v.1.15,2013-01-29 20:55:00,
2013-01-29 14:00:00,33.9,7.1,29.73,NNW,346,13.0,13.0,32,0.00,,,0.00,Wunderground v.1.15,2013-01-29 21:00:00,
2013-01-29 14:05:00,33.9,7.8,29.73,NNW,339,14.0,14.0,33,0.00,,,0.00,Wunderground v.1.15,2013-01-29 21:05:00,
2013-01-29 14:15:00,34.9,8.7,29.73,WNW,289,13.0,23.0,33,0.00,,,0.00,Wunderground v.1.15,2013-01-29 21:15:00,
2013-01-29 14:20:00,35.1,8.2,29.72,NNW,344,14.0,19.0,32,0.00,,,0.00,Wunderground v.1.15,2013-01-29 21:20:00,
2013-01-29 14:25:00,35.2,8.9,29.73,WNW,302,13.0,19.0,33,0.00,,,0.00,Wunderground v.1.15,2013-01-29 21:25:00,
2013-01-29 14:30:00,35.7,8.7,29.73,NW,326,12.0,31.0,32,0.00,,,0.00,Wunderground v.1.15,2013-01-29 21:30:00,
2013-01-29 14:40:00,35.7,7.3,29.72,WNW,297,14.0,14.0,30,0.00,,,0.00,Wunderground v.1.15,2013-01-29 21:40:00,
2013-01-29 14:50:00,35.7,7.3,29.72,WNW,284,15.0,19.0,30,0.00,,,0.00,Wunderground v.1.15,2013-01-29 21:50:00,
2013-01-29 14:55:00,35.8,7.3,29.72,NW,304,14.0,19.0,30,0.00,,,0.00,Wunderground v.1.15,2013-01-29 21:55:00,
2013-01-29 15:00:00,36.2,6.2,29.73,North,351,14.0,14.0,28,0.00,,,0.00,Wunderground v.1.15,2013-01-29 22:00:00,
2013-01-29 15:05:00,36.1,6.1,29.72,NW,311,16.0,16.0,28,0.00,,,0.00,Wunderground v.1.15,2013-01-29 22:05:00,
2013-01-29 15:15:00,36.1,6.1,29.73,NW,308,15.0,21.0,28,0.00,,,0.00,Wunderground v.1.15,2013-01-29 22:15:00,
2013-01-29 15:25:00,36.0,6.8,29.74,NNW,329,14.0,15.0,29,0.00,,,0.00,Wunderground v.1.15,2013-01-29 22:25:00,
2013-01-29 15:30:00,35.9,6.7,29.73,NNW,342,13.0,13.0,29,0.00,,,0.00,Wunderground v.1.15,2013-01-29 22:30:00,
2013-01-29 15:40:00,35.5,5.6,29.74,NW,318,13.0,13.0,28,0.00,,,0.00,Wunderground v.1.15,2013-01-29 22:40:00,
2013-01-29 15:45:00,35.3,4.6,29.75,NNW,327,15.0,15.0,27,0.00,,,0.00,Wunderground v.1.15,2013-01-29 22:45:00,
2013-01-29 15:50:00,35.3,5.4,29.75,North,360,15.0,15.0,28,0.00,,,0.00,Wunderground v.1.15,2013-01-29 22:50:00,
2013-01-29 16:00:00,35.3,6.2,29.76,NW,311,12.0,12.0,29,0.00,,,0.00,Wunderground v.1.15,2013-01-29 23:00:00,
2013-01-29 16:05:00,35.1,6.0,29.76,WNW,296,14.0,19.0,29,0.00,,,0.00,Wunderground v.1.15,2013-01-29 23:05:00,
2013-01-29 16:14:00,34.8,7.2,29.77,NNW,344,12.0,21.0,31,0.00,,,0.00,Wunderground v.1.15,2013-01-29 23:14:00,
2013-01-29 16:20:00,34.7,6.4,29.78,NW,315,12.0,14.0,30,0.00,,,0.00,Wunderground v.1.15,2013-01-29 23:20:00,
2013-01-29 16:25:00,34.5,6.9,29.78,NW,318,14.0,15.0,31,0.00,,,0.00,Wunderground v.1.15,2013-01-29 23:25:00,
2013-01-29 16:35:00,34.3,7.4,29.78,WNW,298,13.0,14.0,32,0.00,,,0.00,Wunderground v.1.15,2013-01-29 23:35:00,
2013-01-29 16:40:00,34.4,7.5,29.78,North,360,13.0,13.0,32,0.00,,,0.00,Wunderground v.1.15,2013-01-29 23:40:00,
2013-01-29 16:45:00,34.4,8.2,29.79,NW,326,12.0,15.0,33,0.00,,,0.00,Wunderground v.1.15,2013-01-29 23:45:00,
2013-01-29 16:50:00,34.4,8.2,29.79,NW,317,13.0,13.0,33,0.00,,,0.00,Wunderground v.1.15,2013-01-29 23:50:00,
2013-01-29 16:55:00,34.5,7.6,29.79,NNE,19,11.0,13.0,32,0.00,,,0.00,Wunderground v.1.15,2013-01-29 23:55:00,
2013-01-29 17:05:00,34.0,7.9,29.80,North,355,12.0,23.0,33,0.00,,,0.00,Wunderground v.1.15,2013-01-30 00:05:00,
2013-01-29 17:15:00,33.6,8.8,29.81,NNW,344,10.0,11.0,35,0.00,,,0.00,Wunderground v.1.15,2013-01-30 00:15:00,
2013-01-29 17:20:00,33.5,8.7,29.81,North,355,10.0,13.0,35,0.00,,,0.00,Wunderground v.1.15,2013-01-30 00:20:00,
2013-01-29 17:25:00,33.4,8.6,29.81,WNW,289,9.0,13.0,35,0.00,,,0.00,Wunderground v.1.15,2013-01-30 00:25:00,
2013-01-29 17:30:00,33.2,9.1,29.82,NNW,340,9.0,9.0,36,0.00,,,0.00,Wunderground v.1.15,2013-01-30 00:30:00,
2013-01-29 17:40:00,32.8,9.3,29.82,NNW,340,8.0,8.0,37,0.00,,,0.00,Wunderground v.1.15,2013-01-30 00:40:00,
2013-01-29 17:45:00,32.7,9.8,29.82,WNW,302,7.0,8.0,38,0.00,,,0.00,Wunderground v.1.15,2013-01-30 00:45:00,
2013-01-29 17:50:00,32.5,9.7,29.82,North,5,7.0,10.0,38,0.00,,,0.00,Wunderground v.1.15,2013-01-30 00:50:00,
2013-01-29 18:00:00,32.5,9.7,29.83,NNW,340,8.0,8.0,38,0.00,,,0.00,Wunderground v.1.15,2013-01-30 01:00:00,
2013-01-29 18:05:00,32.4,10.2,29.83,NW,318,7.0,8.0,39,0.00,,,0.00,Wunderground v.1.15,2013-01-30 01:05:00,
2013-01-29 18:15:00,32.4,10.7,29.84,NNW,345,8.0,8.0,40,0.00,,,0.00,Wunderground v.1.15,2013-01-30 01:15:00,
2013-01-29 18:20:00,32.3,10.6,29.85,NNW,346,8.0,8.0,40,0.00,,,0.00,Wunderground v.1.15,2013-01-30 01:20:00,
2013-01-29 18:25:00,32.2,11.1,29.85,NNW,327,6.0,8.0,41,0.00,,,0.00,Wunderground v.1.15,2013-01-30 01:25:00,
2013-01-29 18:30:00,32.1,11.0,29.85,North,355,5.0,7.0,41,0.00,,,0.00,Wunderground v.1.15,2013-01-30 01:30:00,
2013-01-29 18:35:00,32.0,10.9,29.85,NNW,329,7.0,7.0,41,0.00,,,0.00,Wunderground v.1.15,2013-01-30 01:35:00,
2013-01-29 18:40:00,32.1,10.5,29.86,NNW,334,8.0,10.0,40,0.00,,,0.00,Wunderground v.1.15,2013-01-30 01:40:00,
2013-01-29 18:50:00,32.0,10.9,29.87,NNW,334,7.0,7.0,41,0.00,,,0.00,Wunderground v.1.15,2013-01-30 01:50:00,
2013-01-29 19:00:00,31.8,11.3,29.87,North,9,6.0,6.0,42,0.00,,,0.00,Wunderground v.1.15,2013-01-30 02:00:00,
2013-01-29 19:05:00,31.8,11.3,29.88,WNW,297,7.0,7.0,42,0.00,,,0.00,Wunderground v.1.15,2013-01-30 02:05:00,
2013-01-29 19:15:00,31.7,11.7,29.88,NNW,348,6.0,8.0,43,0.00,,,0.00,Wunderground v.1.15,2013-01-30 02:15:00,
2013-01-29 19:25:00,31.6,12.2,29.88,NNW,345,7.0,8.0,44,0.00,,,0.00,Wunderground v.1.15,2013-01-30 02:25:00,
2013-01-29 19:30:00,31.6,12.2,29.88,NW,325,7.0,9.0,44,0.00,,,0.00,Wunderground v.1.15,2013-01-30 02:30:00,
2013-01-29 19:35:00,31.5,12.1,29.88,NNW,341,7.0,9.0,44,0.00,,,0.00,Wunderground v.1.15,2013-01-30 02:35:00,
2013-01-29 19:40:00,31.6,12.2,29.88,NNW,329,9.0,17.0,44,0.00,,,0.00,Wunderground v.1.15,2013-01-30 02:40:00,
2013-01-29 19:45:00,31.6,12.2,29.87,NW,316,11.0,17.0,44,0.00,,,0.00,Wunderground v.1.15,2013-01-30 02:45:00,
2013-01-29 19:55:00,31.6,12.7,29.88,NW,321,13.0,13.0,45,0.00,,,0.00,Wunderground v.1.15,2013-01-30 02:55:00,
2013-01-29 20:05:00,31.4,12.5,29.89,North,351,12.0,17.0,45,0.00,,,0.00,Wunderground v.1.15,2013-01-30 03:05:00,
2013-01-29 20:15:00,31.2,12.3,29.90,West,266,12.0,14.0,45,0.00,,,0.00,Wunderground v.1.15,2013-01-30 03:15:00,
2013-01-29 20:20:00,31.1,12.7,29.90,NNW,340,12.0,12.0,46,0.00,,,0.00,Wunderground v.1.15,2013-01-30 03:20:00,
2013-01-29 20:30:00,30.8,12.4,29.92,WNW,297,9.0,9.0,46,0.00,,,0.00,Wunderground v.1.15,2013-01-30 03:30:00,
2013-01-29 20:35:00,30.8,12.4,29.92,NNW,344,9.0,9.0,46,0.00,,,0.00,Wunderground v.1.15,2013-01-30 03:35:00,
2013-01-29 20:40:00,30.7,12.8,29.92,NNW,345,10.0,10.0,47,0.00,,,0.00,Wunderground v.1.15,2013-01-30 03:40:00,
2013-01-29 20:45:00,30.6,12.7,29.93,NW,313,10.0,11.0,47,0.00,,,0.00,Wunderground v.1.15,2013-01-30 03:45:00,
2013-01-29 20:55:00,30.3,12.9,29.93,NNW,328,7.0,9.0,48,0.00,,,0.00,Wunderground v.1.15,2013-01-30 03:55:00,
2013-01-29 21:05:00,30.0,13.1,29.94,North,360,5.0,6.0,49,0.00,,,0.00,Wunderground v.1.15,2013-01-30 04:05:00,
2013-01-29 21:15:00,29.7,13.3,29.95,NW,323,3.0,12.0,50,0.00,,,0.00,Wunderground v.1.15,2013-01-30 04:15:00,
2013-01-29 21:20:00,29.7,13.3,29.95,NNW,331,5.0,8.0,50,0.00,,,0.00,Wunderground v.1.15,2013-01-30 04:20:00,
2013-01-29 21:25:00,29.8,13.4,29.95,NNW,344,5.0,8.0,50,0.00,,,0.00,Wunderground v.1.15,2013-01-30 04:25:00,
2013-01-29 21:30:00,29.7,13.3,29.95,NNW,346,5.0,5.0,50,0.00,,,0.00,Wunderground v.1.15,2013-01-30 04:30:00,
2013-01-29 21:40:00,29.7,13.8,29.96,NNW,332,4.0,11.0,51,0.00,,,0.00,Wunderground v.1.15,2013-01-30 04:40:00,
2013-01-29 21:45:00,29.7,13.8,29.97,NW,318,4.0,11.0,51,0.00,,,0.00,Wunderground v.1.15,2013-01-30 04:45:00,
2013-01-29 21:55:00,29.6,14.1,29.97,NW,326,4.0,6.0,52,0.00,,,0.00,Wunderground v.1.15,2013-01-30 04:55:00,
2013-01-29 22:10:00,29.4,14.4,29.98,NNW,344,3.0,3.0,53,0.00,,,0.00,Wunderground v.1.15,2013-01-30 05:10:00,
2013-01-29 22:15:00,29.3,14.3,29.98,NW,323,3.0,4.0,53,0.00,,,0.00,Wunderground v.1.15,2013-01-30 05:15:00,
2013-01-29 22:20:00,29.1,14.5,29.98,North,355,2.0,5.0,54,0.00,,,0.00,Wunderground v.1.15,2013-01-30 05:20:00,
2013-01-29 22:25:00,29.1,14.5,29.98,NNW,336,3.0,5.0,54,0.00,,,0.00,Wunderground v.1.15,2013-01-30 05:25:00,
2013-01-29 22:30:00,29.1,14.5,29.98,NNW,348,3.0,3.0,54,0.00,,,0.00,Wunderground v.1.15,2013-01-30 05:30:00,
2013-01-29 22:40:00,29.1,14.9,30.00,NNW,341,5.0,5.0,55,0.00,,,0.00,Wunderground v.1.15,2013-01-30 05:40:00,
2013-01-29 22:45:00,29.2,15.0,30.00,NW,324,7.0,7.0,55,0.00,,,0.00,Wunderground v.1.15,2013-01-30 05:45:00,
2013-01-29 22:55:00,29.2,15.0,30.00,NW,311,5.0,6.0,55,0.00,,,0.00,Wunderground v.1.15,2013-01-30 05:55:00,
2013-01-29 23:00:00,29.2,15.4,30.00,NNW,342,5.0,5.0,56,0.00,,,0.00,Wunderground v.1.15,2013-01-30 06:00:00,
2013-01-29 23:05:00,29.1,15.3,30.01,North,360,4.0,5.0,56,0.00,,,0.00,Wunderground v.1.15,2013-01-30 06:05:00,
2013-01-29 23:15:00,29.0,15.7,30.01,NNW,331,6.0,7.0,57,0.00,,,0.00,Wunderground v.1.15,2013-01-30 06:15:00,
2013-01-29 23:24:00,29.0,16.1,30.02,NNW,334,6.0,11.0,58,0.00,,,0.00,Wunderground v.1.15,2013-01-30 06:24:00,
2013-01-29 23:30:00,29.0,16.4,30.02,North,349,6.0,6.0,59,0.00,,,0.00,Wunderground v.1.15,2013-01-30 06:30:00,
2013-01-29 23:35:00,28.9,16.4,30.03,NNW,347,6.0,6.0,59,0.00,,,0.00,Wunderground v.1.15,2013-01-30 06:35:00,
2013-01-29 23:40:00,28.8,16.3,30.03,North,350,6.0,6.0,59,0.00,,,0.00,Wunderground v.1.15,2013-01-30 06:40:00,
2013-01-29 23:45:00,28.7,16.2,30.03,NNW,335,4.0,6.0,59,0.00,,,0.00,Wunderground v.1.15,2013-01-30 06:45:00,
2013-01-29 23:50:00,28.7,16.2,30.04,North,355,4.0,4.0,59,0.00,,,0.00,Wunderground v.1.15,2013-01-30 06:50:00,
2013-01-29 23:55:00,28.6,16.1,30.04,North,350,4.0,4.0,59,0.00,,,0.00,Wunderground v.1.15,2013-01-30 06:55:00,